Погода в Ульянихе

Россия / Ярославская область     58°09′03″N   37°45′20″E
темп.,
°C
ветер,
м/с
пор.,
м/с
влажн.,
%
обл.,
%
осадки,
мм/ч
давл.,
гПа
погр.,
м
18 августа, чт
чт1800:00+18юв24760 0.0 102058
03:00+17юв25770 0.0 102194
06:00+16вюв27833 0.0 1021158
09:00+22вюв36610 0.0 1022420
12:00+26вюв45471 0.0 10221334
15:00+27всв44455 0.0 10221510
18:00+24всв36565 0.0 1022213
21:00+20вюв386944 0.0 1023135
19 августа, пт
пт1900:00+18юв39700 0.0 1024166
03:00+16юв26730 0.0 1026116
06:00+16вюв27780 0.0 1027154
09:00+21вюв47626 0.0 1027472
12:00+24в5751100 0.0 10271174
15:00+25вюв5736100 0.0 10271427
18:00+23вюв4839100 0.0 1027403
21:00+17вюв31152100 0.0 1028204
20 августа, сб
сб2000:00+15юв3115598 0.0 1028207
03:00+13юв396710 0.0 1029172
06:00+12вюв387232 0.0 1029167
09:00+19вюв4750100 0.0 1029387
12:00+23юв574161 0.0 1028972
15:00+24ююв5840100 0.0 10271518
18:00+20юв4957100 0.0 1026328
21:00+19юв21158100 0.0 1027311
21 августа, вс
вс2100:00+19юв41240100 0.0 1027387
03:00+18юв41045100 0.0 1026270
06:00+16юв31155100 0.0 1026261
09:00+19ююв4844100 0.0 1027348
12:00+21ююв3437100 0.0 1026472
15:00+24юв5832100 0.0 1024948
18:00+23ююв483448 0.0 1024428
21:00+18ююв3546100 0.0 102563
22 августа, пн
пн2200:00+17ююв3645100 0.0 1024111
03:00+16ююв3747100 0.0 1025115
06:00+16ююв3651100 0.0 1025104
09:00+19ююв3753100 0.0 1025196
12:00+22ююв2742100 0.0 1025320
15:00+20ююв2257100 0.0 102631
18:00+21ююв0061100 0.0 102511
21:00+20в2258100 0.0 102534